Weather History for Zapata, TX

Change the Weather History Date:

Saturday, April 5, 2014

  Actual Average (KLRD) Record (KLRD)
Temperature  
Mean Temperature 66 °F 74 °F  
Max Temperature 69 °F 85 °F 109 °F (1936)
Min Temperature 63 °F 62 °F 32 °F (1920)
Degree Days  
Heating Degree Days 0 1  
Month to date heating degree days 5  
Since 1 July heating degree days 918  
Cooling Degree Days 1 9  
Month to date cooling degree days 45  
Year to date cooling degree days 303  
Growing Degree Days 16 (Base 50)    
Moisture  
Dew Point 47 °F    
Average Humidity 51    
Maximum Humidity 97    
Minimum Humidity 31    
Precipitation  
Precipitation 0.00 in 0.03 in 1.12 in (1922)
Month to date precipitation 0.16  
Year to date precipitation 3.12  
Sea Level Pressure  
Sea Level Pressure 29.91 in    
Wind  
Wind Speed 6 mph (ENE)    
Max Wind Speed 13 mph    
Max Gust Speed 16 mph    
Visibility 9 miles    
Events      
T = Trace of Precipitation, MM = Missing Value Source: NWS Daily Summary

Daily Weather History Graph

Daily Weather History Graph

Search for Another Location

Airport:

Trip Planner

Search our weather history database for the weather conditions in past years. The results will help you decide how hot, cold, wet, or windy it might be!

Date:

Astronomy

Apr. 05, 2014 Rise Set
Actual Time 7:23 AM CDT 7:56 PM CDT
Civil Twilight 6:59 AM CDT 8:19 PM CDT
Nautical Twilight 6:32 AM CDT 8:47 PM CDT
Astronomical Twilight 6:04 AM CDT 9:15 PM CDT
Moon 11:51 AM CDT (4/5) 12:48 AM CDT (4/5)
Length of Visible Light 13h 19m
Length of Day
12h 32m
Waxing Crescent, 34% of the Moon is Illuminated
Apr 5
Waxing Crescent
Apr 7
First Quarter
Apr 15
Full
Apr 22
Last Quarter
Apr 29
New

Hourly Weather History & Observations

Time (CDT) Temp. Dew Point Humidity Pressure Visibility Wind Dir Wind Speed Gust Speed Precip Events Conditions
12:15 AM 68.7 °F 38.8 °F 34% 30.02 in 10.0 mi ENE 3.5 mph - N/A   Overcast
12:35 AM 69.1 °F 38.3 °F 32% 30.01 in 10.0 mi ENE 5.8 mph - N/A   Overcast
12:55 AM 68.9 °F 38.3 °F 33% 30.00 in 10.0 mi ENE 4.6 mph - N/A   Overcast
1:15 AM 68.9 °F 38.3 °F 33% 30.00 in 10.0 mi ENE 4.6 mph - N/A   Overcast
1:35 AM 68.9 °F 37.6 °F 32% 30.00 in 10.0 mi ENE 6.9 mph - N/A   Overcast
1:55 AM 68.4 °F 36.9 °F 31% 30.00 in 10.0 mi ENE 6.9 mph - N/A   Overcast
2:15 AM 68.2 °F 36.7 °F 31% 30.00 in 10.0 mi ENE 4.6 mph - N/A   Overcast
2:35 AM 68.0 °F 36.5 °F 31% 29.99 in 10.0 mi ENE 6.9 mph - N/A   Overcast
2:55 AM 67.5 °F 36.7 °F 32% 29.99 in 10.0 mi ENE 6.9 mph - N/A   Overcast
3:15 AM 67.1 °F 37.2 °F 33% 29.98 in 10.0 mi ENE 5.8 mph - N/A   Overcast
3:35 AM 66.7 °F 36.7 °F 33% 29.98 in 10.0 mi ENE 5.8 mph - N/A   Overcast
3:55 AM 66.4 °F 37.0 °F 34% 29.97 in 10.0 mi East 4.6 mph - N/A   Overcast
4:15 AM 66.2 °F 36.9 °F 34% 29.96 in 10.0 mi East 4.6 mph - N/A   Overcast
4:35 AM 66.0 °F 37.0 °F 34% 29.95 in 10.0 mi ENE 4.6 mph - N/A   Overcast
4:55 AM 65.8 °F 36.7 °F 34% 29.93 in 10.0 mi ENE 9.2 mph - N/A   Overcast
5:15 AM 65.5 °F 36.7 °F 35% 29.93 in 10.0 mi ENE 5.8 mph - N/A   Overcast
5:35 AM 65.5 °F 36.7 °F 35% 29.93 in 10.0 mi ENE 5.8 mph - N/A   Overcast
5:55 AM 65.3 °F 36.7 °F 35% 29.92 in 10.0 mi NE 5.8 mph - N/A   Overcast
6:15 AM 65.3 °F 36.5 °F 34% 29.93 in 10.0 mi NE 4.6 mph - N/A   Overcast
6:35 AM 65.1 °F 36.0 °F 34% 29.94 in 10.0 mi NE 3.5 mph - N/A   Overcast
6:55 AM 65.1 °F 36.1 °F 34% 29.94 in 10.0 mi NE 3.5 mph - N/A   Overcast
7:15 AM 64.9 °F 36.5 °F 35% 29.95 in 10.0 mi Calm Calm - N/A   Overcast
7:35 AM 64.8 °F 37.0 °F 36% 29.96 in 10.0 mi NNE 3.5 mph - N/A   Overcast
7:55 AM 64.8 °F 37.0 °F 36% 29.95 in 10.0 mi NE 3.5 mph - N/A   Overcast
8:15 AM 64.9 °F 37.4 °F 36% 29.96 in 10.0 mi Calm Calm - N/A   Overcast
8:35 AM 65.3 °F 37.9 °F 36% 29.97 in 10.0 mi Calm Calm - N/A   Overcast
8:55 AM 65.5 °F 38.3 °F 37% 29.97 in 10.0 mi ENE 4.6 mph - N/A   Overcast
9:15 AM 65.3 °F 39.2 °F 38% 29.98 in 10.0 mi NE 5.8 mph - N/A   Overcast
9:35 AM 65.3 °F 40.3 °F 40% 29.99 in 10.0 mi ENE 9.2 mph - N/A   Overcast
9:55 AM 64.4 °F 42.8 °F 45% 29.99 in 10.0 mi ENE 8.1 mph - N/A   Overcast
10:15 AM 64.9 °F 43.3 °F 45% 29.99 in 10.0 mi ENE 6.9 mph - N/A   Overcast
10:35 AM 65.3 °F 42.8 °F 44% 30.00 in 10.0 mi NE 8.1 mph - N/A   Overcast
10:55 AM 66.2 °F 43.3 °F 44% 29.99 in 10.0 mi NE 8.1 mph - N/A   Overcast
11:15 AM 67.5 °F 43.9 °F 43% 29.99 in 10.0 mi ENE 6.9 mph - N/A   Overcast
11:35 AM 67.1 °F 45.3 °F 45% 29.99 in 10.0 mi ENE 6.9 mph - N/A   Overcast
11:55 AM 67.3 °F 47.3 °F 49% 29.98 in 10.0 mi ENE 8.1 mph - N/A   Overcast
12:15 PM 67.1 °F 46.4 °F 47% 29.97 in 10.0 mi NE 4.6 mph - N/A   Overcast
12:35 PM 67.1 °F 47.3 °F 49% 29.96 in 10.0 mi ENE 6.9 mph - N/A   Overcast
12:55 PM 67.5 °F 48.2 °F 50% 29.96 in 10.0 mi East 5.8 mph - N/A   Overcast
1:15 PM 67.1 °F 48.7 °F 52% 29.95 in 10.0 mi ENE 5.8 mph - N/A   Overcast
1:35 PM 67.1 °F 49.5 °F 53% 29.95 in 7.0 mi ENE 5.8 mph - N/A   Overcast
1:55 PM 66.7 °F 49.1 °F 53% 29.93 in 10.0 mi NNE 5.8 mph - N/A   Overcast
2:15 PM 67.3 °F 49.5 °F 53% 29.92 in 10.0 mi ENE 6.9 mph - N/A   Overcast
2:35 PM 67.8 °F 49.5 °F 52% 29.91 in 7.0 mi NNE 4.6 mph - N/A   Overcast
2:55 PM 68.2 °F 50.5 °F 53% 29.89 in 7.0 mi ENE 5.8 mph - N/A   Overcast
3:15 PM 68.9 °F 50.9 °F 53% 29.88 in 10.0 mi East 6.9 mph - N/A   Overcast
3:35 PM 69.1 °F 51.3 °F 53% 29.86 in 10.0 mi ENE 8.1 mph - N/A   Overcast
3:55 PM 68.7 °F 51.6 °F 54% 29.85 in 10.0 mi ENE 8.1 mph - N/A   Overcast
4:15 PM 69.6 °F 51.8 °F 53% 29.84 in 10.0 mi East 8.1 mph - N/A   Overcast
4:35 PM 69.1 °F 52.0 °F 54% 29.83 in 10.0 mi ENE 8.1 mph - N/A   Overcast
4:55 PM 68.9 °F 52.3 °F 55% 29.83 in 10.0 mi NE 4.6 mph - N/A   Overcast
5:15 PM 69.1 °F 52.9 °F 56% 29.83 in 7.0 mi ENE 5.8 mph - N/A   Overcast
5:35 PM 69.1 °F 53.2 °F 57% 29.83 in 7.0 mi ENE 4.6 mph - N/A   Overcast
5:55 PM 68.9 °F 54.0 °F 59% 29.82 in 4.0 mi ENE 5.8 mph - N/A   Haze
6:15 PM 69.3 °F 57.0 °F 65% 29.82 in 4.0 mi East 8.1 mph - N/A   Haze
6:35 PM 68.5 °F 57.9 °F 69% 29.81 in 5.0 mi ESE 8.1 mph - N/A   Haze
6:55 PM 68.5 °F 58.1 °F 69% 29.81 in 5.0 mi ENE 8.1 mph - N/A   Haze
7:15 PM 68.4 °F 58.1 °F 70% 29.80 in 7.0 mi East 8.1 mph - N/A   Overcast
7:35 PM 68.0 °F 58.3 °F 71% 29.80 in 7.0 mi East 9.2 mph - N/A   Overcast
7:55 PM 67.5 °F 58.3 °F 72% 29.80 in 10.0 mi East 8.1 mph - N/A   Overcast
8:15 PM 67.1 °F 58.8 °F 75% 29.80 in 10.0 mi ESE 12.7 mph - N/A   Overcast
8:35 PM 66.0 °F 59.2 °F 79% 29.81 in 10.0 mi ESE 8.1 mph 16.1 mph N/A   Overcast
8:55 PM 65.8 °F 59.2 °F 79% 29.80 in 10.0 mi East 8.1 mph - N/A   Overcast
9:15 PM 65.3 °F 59.4 °F 81% 29.80 in 10.0 mi East 8.1 mph - N/A   Overcast
9:35 PM 64.6 °F 59.7 °F 84% 29.80 in 7.0 mi East 8.1 mph - N/A   Overcast
9:55 PM 64.8 °F 59.9 °F 84% 29.81 in 7.0 mi East 8.1 mph - N/A   Overcast
10:15 PM 64.6 °F 60.1 °F 85% 29.82 in 7.0 mi East 4.6 mph - N/A   Overcast
10:35 PM 64.4 °F 60.3 °F 86% 29.82 in 4.0 mi ESE 6.9 mph - N/A   Haze
11:15 PM 64.0 °F 61.9 °F 93% 29.80 in 4.0 mi East 5.8 mph - N/A   Overcast
11:35 PM 63.5 °F 62.2 °F 96% 29.80 in 2.5 mi Calm Calm - N/A   Overcast
11:55 PM 63.5 °F 62.6 °F 97% 29.79 in 2.0 mi ENE 4.6 mph - N/A   Overcast